• In Uzbekistan
  • List of Countries
  • For 7 days
  • Water Temperature
  • Satellite Maps
  • Weather Map
  • Weather Widgets
  • user-avatar
    Login

    Hourly Weather Regina

    Today, 18 July, Wednesday

    Time Temperature Precipitation Wind Pressure Humidity
    00:00 +23°C° 0 mm 5 mps 710 mmHg 55%
    01:00 +23°C° 0 mm 5 mps 710 mmHg 55%
    02:00 +23°C° 0 mm 5 mps 709 mmHg 55%
    03:00 +22°C° 0 mm 4 mps 709 mmHg 58%
    04:00 +22°C° 0 mm 4 mps 709 mmHg 61%
    05:00 +22°C° 0 mm 3 mps 709 mmHg 65%
    06:00 +22°C° 0 mm 3 mps 709 mmHg 64%
    07:00 +23°C° 0 mm 4 mps 708 mmHg 64%
    08:00 +25°C° 0 mm 4 mps 708 mmHg 64%
    09:00 +26°C° 0 mm 4 mps 708 mmHg 61%
    10:00 +28°C° 0 mm 4 mps 708 mmHg 57%
    11:00 +29°C° 0 mm 4 mps 708 mmHg 54%
    12:00 +30°C° 0 mm 4 mps 707 mmHg 50%
    13:00 +32°C° 0 mm 4 mps 707 mmHg 45%
    14:00 +33°C° 0 mm 4 mps 707 mmHg 41%
    15:00 +32°C° 0 mm 4 mps 707 mmHg 42%
    16:00 +32°C° 0 mm 4 mps 706 mmHg 43%
    17:00 +31°C° 0 mm 3 mps 706 mmHg 44%
    18:00 +29°C° 0 mm 3 mps 706 mmHg 47%
    19:00 +27°C° 0 mm 2 mps 705 mmHg 50%
    20:00 +25°C° 0 mm 1 mps 705 mmHg 53%
    21:00 +25°C° 0.1 mm 2 mps 705 mmHg 56%
    22:00 +24°C° 0.1 mm 2 mps 705 mmHg 59%
    23:00 +23°C° 0.1 mm 2 mps 705 mmHg 62%

    Tomorrow, 19 July, Thursday

    Time Temperature Precipitation Wind Pressure Humidity
    00:00 +21°C° 0.4 mm 2 mps 705 mmHg 65%
    01:00 +22°C° 0.4 mm 1 mps 705 mmHg 69%
    02:00 +21°C° 0.4 mm 1 mps 705 mmHg 72%
    03:00 +21°C° 0.2 mm 1 mps 705 mmHg 76%
    04:00 +19°C° 0.2 mm 2 mps 705 mmHg 80%
    05:00 +18°C° 0.2 mm 3 mps 705 mmHg 85%
    06:00 +19°C° 0.2 mm 3 mps 706 mmHg 83%
    07:00 +20°C° 0.2 mm 4 mps 707 mmHg 82%
    08:00 +21°C° 0.2 mm 5 mps 707 mmHg 80%
    09:00 +21°C° 0 mm 5 mps 708 mmHg 79%
    10:00 +21°C° 0 mm 5 mps 708 mmHg 78%
    11:00 +22°C° 0 mm 6 mps 708 mmHg 77%
    12:00 +23°C° 0 mm 6 mps 709 mmHg 72%
    13:00 +24°C° 0 mm 6 mps 709 mmHg 68%
    14:00 +26°C° 0 mm 5 mps 709 mmHg 63%
    15:00 +26°C° 0.3 mm 5 mps 709 mmHg 63%
    16:00 +26°C° 0.3 mm 5 mps 710 mmHg 62%
    17:00 +26°C° 0.3 mm 5 mps 710 mmHg 62%
    18:00 +23°C° 0 mm 4 mps 710 mmHg 67%
    19:00 +21°C° 0 mm 3 mps 710 mmHg 72%
    20:00 +20°C° 0 mm 3 mps 710 mmHg 77%
    21:00 +19°C° 0 mm 2 mps 710 mmHg 80%
    22:00 +18°C° 0 mm 2 mps 710 mmHg 82%
    23:00 +17°C° 0 mm 2 mps 710 mmHg 85%

    Day after tomorrow, 20 July, Friday

    Time Temperature Precipitation Wind Pressure Humidity
    00:00 +16°C° 0 mm 2 mps 711 mmHg 86%
    01:00 +16°C° 0 mm 1 mps 711 mmHg 87%
    02:00 +15°C° 0 mm 1 mps 711 mmHg 88%
    03:00 +15°C° 0 mm 1 mps 711 mmHg 87%
    04:00 +15°C° 0 mm 1 mps 711 mmHg 87%
    05:00 +16°C° 0 mm 1 mps 711 mmHg 86%
    06:00 +19°C° 0 mm 1 mps 712 mmHg 77%
    07:00 +20°C° 0 mm 2 mps 712 mmHg 68%
    08:00 +23°C° 0 mm 2 mps 712 mmHg 59%
    09:00 +24°C° 0 mm 2 mps 712 mmHg 53%
    10:00 +26°C° 0 mm 3 mps 713 mmHg 47%
    11:00 +27°C° 0 mm 3 mps 713 mmHg 41%
    12:00 +28°C° 0 mm 3 mps 713 mmHg 40%
    13:00 +28°C° 0 mm 4 mps 712 mmHg 38%
    14:00 +29°C° 0 mm 4 mps 712 mmHg 36%
    15:00 +29°C° 0 mm 4 mps 712 mmHg 37%
    16:00 +29°C° 0 mm 4 mps 712 mmHg 39%
    17:00 +29°C° 0 mm 5 mps 711 mmHg 40%
    18:00 +27°C° 0 mm 5 mps 711 mmHg 46%
    19:00 +25°C° 0 mm 5 mps 711 mmHg 52%
    20:00 +22°C° 0 mm 5 mps 711 mmHg 57%
    21:00 +22°C° 0 mm 6 mps 711 mmHg 57%
    22:00 +21°C° 0 mm 6 mps 711 mmHg 57%
    23:00 +21°C° 0 mm 7 mps 711 mmHg 56%

    21 July, Saturday

    Time Temperature Precipitation Wind Pressure Humidity
    00:00 +21°C° 0 mm 7 mps 711 mmHg 58%
    01:00 +20°C° 0 mm 7 mps 711 mmHg 60%
    02:00 +20°C° 0 mm 7 mps 711 mmHg 63%
    03:00 +20°C° 0 mm 7 mps 711 mmHg 64%
    04:00 +18°C° 0 mm 7 mps 711 mmHg 66%
    05:00 +19°C° 0 mm 6 mps 711 mmHg 68%
    06:00 +21°C° 0 mm 7 mps 711 mmHg 64%
    07:00 +22°C° 0 mm 7 mps 711 mmHg 61%
    08:00 +23°C° 0 mm 8 mps 711 mmHg 58%
    09:00 +26°C° 0 mm 8 mps 711 mmHg 53%
    10:00 +28°C° 0 mm 8 mps 710 mmHg 49%
    11:00 +29°C° 0 mm 8 mps 710 mmHg 44%
    12:00 +31°C° 0 mm 8 mps 710 mmHg 43%
    13:00 +31°C° 0 mm 8 mps 710 mmHg 42%
    14:00 +32°C° 0 mm 7 mps 709 mmHg 40%
    15:00 +32°C° 0.2 mm 7 mps 709 mmHg 42%
    16:00 +30°C° 0.2 mm 7 mps 709 mmHg 44%
    17:00 +30°C° 0.2 mm 7 mps 708 mmHg 46%
    18:00 +28°C° 0.3 mm 7 mps 708 mmHg 50%
    19:00 +27°C° 0.3 mm 7 mps 707 mmHg 55%
    20:00 +24°C° 0.3 mm 7 mps 707 mmHg 59%
    21:00 +23°C° 0 mm 6 mps 707 mmHg 60%
    22:00 +22°C° 0 mm 6 mps 707 mmHg 60%
    23:00 +22°C° 0 mm 5 mps 707 mmHg 60%

    22 July, Sunday

    Time Temperature Precipitation Wind Pressure Humidity
    00:00 +20°C° 0 mm 6 mps 707 mmHg 60%
    01:00 +19°C° 0 mm 6 mps 707 mmHg 61%
    02:00 +17°C° 0 mm 6 mps 708 mmHg 61%
    03:00 +16°C° 0 mm 6 mps 708 mmHg 66%
    04:00 +16°C° 0 mm 6 mps 708 mmHg 71%
    05:00 +16°C° 0 mm 6 mps 709 mmHg 75%
    06:00 +17°C° 0 mm 7 mps 709 mmHg 72%
    07:00 +18°C° 0 mm 8 mps 710 mmHg 68%
    08:00 +19°C° 0 mm 9 mps 710 mmHg 65%
    09:00 +20°C° 0 mm 8 mps 711 mmHg 64%
    10:00 +20°C° 0 mm 8 mps 711 mmHg 63%
    11:00 +20°C° 0 mm 8 mps 711 mmHg 62%
    12:00 +20°C° 0.1 mm 8 mps 712 mmHg 64%
    13:00 +20°C° 0.1 mm 8 mps 712 mmHg 65%
    14:00 +20°C° 0.1 mm 8 mps 712 mmHg 66%
    15:00 +20°C° 0 mm 8 mps 713 mmHg 61%
    16:00 +21°C° 0 mm 8 mps 713 mmHg 56%
    17:00 +22°C° 0 mm 7 mps 713 mmHg 52%
    18:00 +21°C° 0 mm 6 mps 713 mmHg 55%
    19:00 +20°C° 0 mm 4 mps 714 mmHg 59%
    20:00 +18°C° 0 mm 3 mps 714 mmHg 63%
    21:00 +18°C° 0 mm 4 mps 714 mmHg 66%
    22:00 +17°C° 0 mm 4 mps 714 mmHg 69%
    23:00 +15°C° 0 mm 5 mps 715 mmHg 72%

    23 July, Monday

    Time Temperature Precipitation Wind Pressure Humidity
    00:00 +14°C° 0 mm 5 mps 715 mmHg 77%
    01:00 +14°C° 0 mm 4 mps 715 mmHg 83%
    02:00 +13°C° 0 mm 4 mps 715 mmHg 88%
    03:00 +12°C° 0 mm 4 mps 716 mmHg 87%
    04:00 +12°C° 0 mm 5 mps 716 mmHg 85%
    05:00 +12°C° 0 mm 5 mps 717 mmHg 84%
    06:00 +13°C° 0 mm 5 mps 717 mmHg 72%
    07:00 +15°C° 0 mm 6 mps 717 mmHg 61%
    08:00 +17°C° 0 mm 7 mps 718 mmHg 50%
    09:00 +18°C° 0 mm 7 mps 718 mmHg 47%
    10:00 +20°C° 0 mm 8 mps 718 mmHg 43%
    11:00 +21°C° 0 mm 8 mps 718 mmHg 39%
    12:00 +21°C° 0 mm 8 mps 718 mmHg 38%
    13:00 +21°C° 0 mm 8 mps 717 mmHg 37%
    14:00 +22°C° 0 mm 8 mps 717 mmHg 36%
    15:00 +21°C° 0 mm 8 mps 717 mmHg 39%
    16:00 +20°C° 0 mm 7 mps 717 mmHg 41%
    17:00 +20°C° 0 mm 7 mps 717 mmHg 43%
    18:00 +17°C° 0 mm 6 mps 718 mmHg 49%
    19:00 +17°C° 0 mm 4 mps 718 mmHg 56%
    20:00 +14°C° 0 mm 3 mps 718 mmHg 62%
    21:00 +13°C° 0 mm 3 mps 718 mmHg 64%
    22:00 +12°C° 0 mm 3 mps 718 mmHg 67%
    23:00 +12°C° 0 mm 3 mps 719 mmHg 69%
    Show more